TimeCST,TemperatureF,Dew PointF,Humidity,Sea Level PressureIn,VisibilityMPH,Wind Direction,Wind SpeedMPH,Gust SpeedMPH,PrecipitationIn,Events,Conditions,WindDirDegrees,DateUTC
12:52 AM,28.0,24.1,85,30.42,10.0,Calm,Calm,-,N/A,,Clear,0,2013-11-30 06:52:00
1:52 AM,26.1,21.9,84,30.42,10.0,Calm,Calm,-,N/A,,Clear,0,2013-11-30 07:52:00
2:52 AM,26.1,23.0,88,30.41,10.0,Calm,Calm,-,N/A,,Clear,0,2013-11-30 08:52:00
3:52 AM,24.1,21.0,88,30.40,9.0,SE,4.6,-,N/A,,Clear,130,2013-11-30 09:52:00
4:52 AM,25.0,21.9,88,30.39,10.0,SSE,6.9,-,N/A,,Clear,150,2013-11-30 10:52:00
5:52 AM,30.0,23.0,75,30.38,10.0,SE,4.6,-,N/A,,Clear,140,2013-11-30 11:52:00
6:52 AM,28.9,21.9,75,30.38,10.0,South,3.5,-,N/A,,Clear,170,2013-11-30 12:52:00
8:52 AM,39.9,30.9,70,30.37,10.0,South,8.1,-,N/A,,Clear,190,2013-11-30 14:52:00
9:52 AM,46.0,30.9,56,30.36,10.0,South,10.4,-,N/A,,Clear,190,2013-11-30 15:52:00
10:52 AM,50.0,28.9,44,30.34,10.0,SSW,15.0,-,N/A,,Clear,210,2013-11-30 16:52:00
11:52 AM,52.0,30.9,45,30.29,10.0,SSW,15.0,-,N/A,,Clear,200,2013-11-30 17:52:00
12:52 PM,53.1,30.0,41,30.26,10.0,South,13.8,-,N/A,,Clear,180,2013-11-30 18:52:00
1:52 PM,54.0,30.9,41,30.21,10.0,South,15.0,-,N/A,,Clear,180,2013-11-30 19:52:00
2:52 PM,53.1,30.9,43,30.20,10.0,SSW,15.0,25.3,N/A,,Clear,200,2013-11-30 20:52:00
3:52 PM,51.1,33.1,50,30.19,10.0,South,16.1,20.7,N/A,,Clear,190,2013-11-30 21:52:00
4:52 PM,48.0,33.1,56,30.17,10.0,South,10.4,-,N/A,,Clear,180,2013-11-30 22:52:00
5:52 PM,46.0,33.1,61,30.18,10.0,South,11.5,-,N/A,,Clear,180,2013-11-30 23:52:00
6:52 PM,46.9,32.0,56,30.19,10.0,SSW,13.8,26.5,N/A,,Clear,200,2013-12-01 00:52:00
7:52 PM,44.1,32.0,63,30.19,10.0,SSW,6.9,-,N/A,,Clear,210,2013-12-01 01:52:00
8:52 PM,41.0,30.9,67,30.19,10.0,South,6.9,-,N/A,,Clear,190,2013-12-01 02:52:00
9:52 PM,43.0,30.9,62,30.18,10.0,SSW,8.1,-,N/A,,Clear,210,2013-12-01 03:52:00
10:52 PM,41.0,30.9,67,30.17,10.0,SSW,8.1,-,N/A,,Clear,200,2013-12-01 04:52:00
11:52 PM,39.9,30.0,68,30.17,10.0,South,4.6,-,N/A,,Clear,180,2013-12-01 05:52:00